When you browse on this site, cookies collect data to enhance your experience and personalize the content and advertising you see.
Visit our Privacy Policy to learn more. By continuing to use the site, you agree to this use of cookies and data.
  • In Slovakia
  • List of Countries
  • For 7 days
  • Water Temperature
  • Weather Map
  • Weather Widgets
  • user-avatar
    Login

    Hourly Weather Yurkovichi

    Today, 31 May, Sunday

    Time Temperature Precipitation Wind Pressure Humidity
    00:00 +13°C° 0.1 mm 8 mps 737 mmHg 83%
    01:00 +13°C° 0.1 mm 8 mps 738 mmHg 83%
    02:00 +13°C° 0 mm 6 mps 739 mmHg 79%
    03:00 +12°C° 0.2 mm 7 mps 739 mmHg 82%
    04:00 +11°C° 0.2 mm 7 mps 739 mmHg 85%
    05:00 +11°C° 0.2 mm 8 mps 739 mmHg 88%
    06:00 +10°C° 0.5 mm 8 mps 739 mmHg 88%
    07:00 +10°C° 0.5 mm 7 mps 739 mmHg 88%
    08:00 +10°C° 0 mm 7 mps 740 mmHg 87%
    09:00 +10°C° 0.1 mm 7 mps 740 mmHg 84%
    10:00 +11°C° 0.1 mm 7 mps 740 mmHg 81%
    11:00 +12°C° 0.1 mm 7 mps 741 mmHg 78%
    12:00 +14°C° 0 mm 7 mps 741 mmHg 72%
    13:00 +15°C° 0 mm 7 mps 742 mmHg 66%
    14:00 +17°C° 0 mm 7 mps 742 mmHg 61%
    15:00 +17°C° 0 mm 7 mps 742 mmHg 60%
    16:00 +17°C° 0 mm 7 mps 742 mmHg 60%
    17:00 +17°C° 0 mm 7 mps 742 mmHg 60%
    18:00 +15°C° 0 mm 6 mps 742 mmHg 62%
    19:00 +14°C° 0 mm 6 mps 743 mmHg 64%
    20:00 +12°C° 0 mm 5 mps 743 mmHg 66%
    21:00 +12°C° 0 mm 5 mps 743 mmHg 64%
    22:00 +10°C° 0 mm 5 mps 743 mmHg 63%
    23:00 +9°C° 0 mm 5 mps 744 mmHg 61%

    Tomorrow, 1 June, Monday

    Time Temperature Precipitation Wind Pressure Humidity
    00:00 +8°C° 0 mm 5 mps 744 mmHg 62%
    01:00 +7°C° 0 mm 5 mps 744 mmHg 64%
    02:00 +6°C° 0 mm 5 mps 744 mmHg 66%
    03:00 +6°C° 0 mm 5 mps 744 mmHg 69%
    04:00 +5°C° 0 mm 5 mps 744 mmHg 72%
    05:00 +5°C° 0 mm 5 mps 744 mmHg 75%
    06:00 +6°C° 0 mm 5 mps 744 mmHg 70%
    07:00 +7°C° 0 mm 6 mps 744 mmHg 66%
    08:00 +8°C° 0 mm 6 mps 745 mmHg 62%
    09:00 +9°C° 0 mm 7 mps 744 mmHg 60%
    10:00 +9°C° 0 mm 7 mps 744 mmHg 59%
    11:00 +10°C° 0 mm 7 mps 744 mmHg 57%
    12:00 +10°C° 0.2 mm 7 mps 744 mmHg 58%
    13:00 +10°C° 0.2 mm 7 mps 744 mmHg 58%
    14:00 +11°C° 0.2 mm 8 mps 744 mmHg 58%
    15:00 +10°C° 0.1 mm 7 mps 743 mmHg 62%
    16:00 +10°C° 0.1 mm 6 mps 743 mmHg 65%
    17:00 +10°C° 0.1 mm 6 mps 743 mmHg 68%
    18:00 +9°C° 0 mm 5 mps 743 mmHg 71%
    19:00 +9°C° 0 mm 5 mps 742 mmHg 73%
    20:00 +8°C° 0 mm 5 mps 742 mmHg 76%
    21:00 +8°C° 0 mm 5 mps 742 mmHg 76%
    22:00 +8°C° 0 mm 6 mps 741 mmHg 76%
    23:00 +7°C° 0 mm 6 mps 741 mmHg 76%

    Day after tomorrow, 2 June, Tuesday

    Time Temperature Precipitation Wind Pressure Humidity
    00:00 +8°C° 0.1 mm 7 mps 740 mmHg 77%
    01:00 +8°C° 0.1 mm 7 mps 739 mmHg 79%
    02:00 +7°C° 0.1 mm 8 mps 739 mmHg 80%
    03:00 +7°C° 0.3 mm 8 mps 738 mmHg 83%
    04:00 +6°C° 0.3 mm 8 mps 737 mmHg 85%
    05:00 +6°C° 0.3 mm 9 mps 737 mmHg 88%
    06:00 +6°C° 1.2 mm 9 mps 736 mmHg 89%
    07:00 +6°C° 1.2 mm 9 mps 736 mmHg 91%
    08:00 +6°C° 1.2 mm 9 mps 736 mmHg 93%
    09:00 +6°C° 1.1 mm 9 mps 736 mmHg 93%
    10:00 +6°C° 1.1 mm 8 mps 737 mmHg 94%
    11:00 +6°C° 1.1 mm 8 mps 737 mmHg 94%
    12:00 +7°C° 0.6 mm 8 mps 737 mmHg 94%
    13:00 +8°C° 0.6 mm 7 mps 737 mmHg 94%
    14:00 +8°C° 0.6 mm 7 mps 737 mmHg 95%
    15:00 +8°C° 0.4 mm 6 mps 737 mmHg 95%
    16:00 +9°C° 0.4 mm 6 mps 737 mmHg 94%
    17:00 +9°C° 0.4 mm 6 mps 737 mmHg 94%
    18:00 +9°C° 0.1 mm 6 mps 737 mmHg 94%
    19:00 +9°C° 0.1 mm 5 mps 737 mmHg 94%
    20:00 +9°C° 0.1 mm 5 mps 737 mmHg 94%
    21:00 +8°C° 0 mm 5 mps 737 mmHg 95%
    22:00 +8°C° 0 mm 4 mps 737 mmHg 96%
    23:00 +7°C° 0 mm 4 mps 737 mmHg 97%

    3 June, Wednesday

    Time Temperature Precipitation Wind Pressure Humidity
    00:00 +7°C° 0 mm 4 mps 737 mmHg 97%
    01:00 +7°C° 0 mm 4 mps 737 mmHg 97%
    02:00 +7°C° 0 mm 4 mps 737 mmHg 96%
    03:00 +7°C° 0 mm 4 mps 737 mmHg 96%
    04:00 +7°C° 0 mm 4 mps 736 mmHg 96%
    05:00 +6°C° 0 mm 4 mps 736 mmHg 95%
    06:00 +7°C° 0 mm 4 mps 736 mmHg 91%
    07:00 +8°C° 0 mm 5 mps 736 mmHg 87%
    08:00 +9°C° 0 mm 5 mps 737 mmHg 83%
    09:00 +11°C° 0.3 mm 6 mps 737 mmHg 80%
    10:00 +13°C° 0.3 mm 6 mps 737 mmHg 76%
    11:00 +14°C° 0.3 mm 6 mps 737 mmHg 72%
    12:00 +14°C° 0.8 mm 6 mps 736 mmHg 74%
    13:00 +14°C° 0.8 mm 5 mps 736 mmHg 76%
    14:00 +14°C° 0.8 mm 5 mps 736 mmHg 78%
    15:00 +14°C° 0.8 mm 5 mps 736 mmHg 80%
    16:00 +14°C° 0.8 mm 5 mps 736 mmHg 81%
    17:00 +14°C° 0.8 mm 5 mps 736 mmHg 83%
    18:00 +13°C° 0.5 mm 5 mps 735 mmHg 86%
    19:00 +12°C° 0.5 mm 4 mps 735 mmHg 89%
    20:00 +11°C° 0.5 mm 4 mps 735 mmHg 92%
    21:00 +10°C° 0.3 mm 4 mps 735 mmHg 93%
    22:00 +8°C° 0.3 mm 4 mps 735 mmHg 95%
    23:00 +8°C° 0.3 mm 4 mps 735 mmHg 97%

    4 June, Thursday

    Time Temperature Precipitation Wind Pressure Humidity
    00:00 +8°C° 0 mm 4 mps 735 mmHg 97%
    01:00 +9°C° 0 mm 3 mps 735 mmHg 97%
    02:00 +9°C° 0 mm 3 mps 735 mmHg 97%
    03:00 +9°C° 0 mm 3 mps 735 mmHg 97%
    04:00 +9°C° 0 mm 3 mps 735 mmHg 97%
    05:00 +9°C° 0 mm 3 mps 735 mmHg 97%
    06:00 +9°C° 0 mm 3 mps 735 mmHg 95%
    07:00 +9°C° 0 mm 3 mps 735 mmHg 94%
    08:00 +10°C° 0 mm 3 mps 735 mmHg 92%
    09:00 +12°C° 0 mm 2 mps 735 mmHg 88%
    10:00 +13°C° 0 mm 2 mps 735 mmHg 83%
    11:00 +14°C° 0 mm 2 mps 735 mmHg 78%
    12:00 +15°C° 0.4 mm 2 mps 734 mmHg 75%
    13:00 +15°C° 0.4 mm 2 mps 734 mmHg 72%
    14:00 +16°C° 0.4 mm 2 mps 734 mmHg 69%
    15:00 +16°C° 0.7 mm 2 mps 734 mmHg 71%
    16:00 +16°C° 0.7 mm 2 mps 733 mmHg 72%
    17:00 +16°C° 0.7 mm 1 mps 733 mmHg 74%
    18:00 +15°C° 0.6 mm 1 mps 733 mmHg 78%
    19:00 +14°C° 0.6 mm 1 mps 733 mmHg 82%
    20:00 +12°C° 0.6 mm 1 mps 733 mmHg 86%
    21:00 +11°C° 0 mm 1 mps 733 mmHg 87%
    22:00 +10°C° 0 mm 1 mps 733 mmHg 89%
    23:00 +9°C° 0 mm 0 mps 733 mmHg 91%

    5 June, Friday

    Time Temperature Precipitation Wind Pressure Humidity
    00:00 +9°C° 0 mm 1 mps 733 mmHg 91%
    01:00 +9°C° 0 mm 1 mps 733 mmHg 92%
    02:00 +8°C° 0 mm 1 mps 733 mmHg 93%
    03:00 +9°C° 0 mm 1 mps 733 mmHg 93%
    04:00 +9°C° 0 mm 1 mps 732 mmHg 93%
    05:00 +9°C° 0 mm 1 mps 732 mmHg 94%
    06:00 +9°C° 0 mm 2 mps 732 mmHg 91%
    07:00 +12°C° 0 mm 2 mps 732 mmHg 89%
    08:00 +12°C° 0 mm 3 mps 732 mmHg 86%
    09:00 +14°C° 0.1 mm 4 mps 732 mmHg 81%
    10:00 +15°C° 0.1 mm 4 mps 732 mmHg 76%
    11:00 +17°C° 0.1 mm 5 mps 732 mmHg 72%
    12:00 +17°C° 0.5 mm 4 mps 732 mmHg 77%
    13:00 +15°C° 0.5 mm 4 mps 731 mmHg 82%
    14:00 +14°C° 0.5 mm 4 mps 731 mmHg 87%
    15:00 +14°C° 0.3 mm 3 mps 731 mmHg 89%
    16:00 +13°C° 0.3 mm 3 mps 731 mmHg 91%
    17:00 +13°C° 0.3 mm 3 mps 731 mmHg 94%
    18:00 +13°C° 0.1 mm 3 mps 732 mmHg 93%
    19:00 +12°C° 0.1 mm 3 mps 732 mmHg 92%
    20:00 +12°C° 0.1 mm 3 mps 732 mmHg 91%
    21:00 +11°C° 0 mm 4 mps 732 mmHg 91%
    22:00 +10°C° 0 mm 4 mps 732 mmHg 92%
    23:00 +8°C° 0 mm 4 mps 733 mmHg 92%
    Show more